Weather History for Taylorville, IL

Change the Weather History Date:

Saturday, August 9, 2014

  Actual Average (KSPI) Record (KSPI)
Temperature  
Mean Temperature 68 °F 75 °F  
Max Temperature 71 °F 85 °F 108 °F (1934)
Min Temperature 64 °F 65 °F 49 °F (1972)
Degree Days  
Heating Degree Days 0 0  
Month to date heating degree days 0  
Since 1 June heating degree days 16  
Since 1 July heating degree days 1  
Cooling Degree Days 2 10  
Month to date cooling degree days 90  
Year to date cooling degree days 769  
Since 1 June cooling degree days 665  
Growing Degree Days 18 (Base 50)    
Moisture  
Dew Point 66 °F    
Average Humidity 91    
Maximum Humidity 100    
Minimum Humidity 83    
Precipitation  
Precipitation 0.00 in 0.11 in 1.84 in (1974)
Month to date precipitation 1.01  
Year to date precipitation 23.42  
Snow  
Snow 0.00 in 0.00 in 0.00 in ()
Month to date snowfall 0.0  
Since 1 June snowfall 0.0  
Since 1 July snowfall 0.0  
Snow Depth -    
Sea Level Pressure  
Sea Level Pressure 30.01 in    
Wind  
Wind Speed 6 mph (ENE)    
Max Wind Speed 10 mph    
Max Gust Speed -    
Visibility 7 miles    
Events      
T = Trace of Precipitation, MM = Missing Value Source: NWS Daily Summary

Daily Weather History Graph

Daily Weather History Graph

Search for Another Location

Airport:

Trip Planner

Search our weather history database for the weather conditions in past years. The results will help you decide how hot, cold, wet, or windy it might be!

Date:

Astronomy

Aug. 09, 2014 Rise Set
Actual Time 6:04 AM CDT 8:00 PM CDT
Civil Twilight 5:34 AM CDT 8:30 PM CDT
Nautical Twilight 4:59 AM CDT 9:05 PM CDT
Astronomical Twilight 4:20 AM CDT 9:43 PM CDT
Moon 7:02 PM CDT (8/9) 4:44 AM CDT (8/9)
Length of Visible Light 14h 55m
Length of Day
13h 56m
Waxing Gibbous, 98% of the Moon is Illuminated
Aug 9
Waxing Gibbous
Aug 10
Full
Aug 17
Last Quarter
Aug 25
New
Sep 2
First Quarter

Hourly Weather History & Observations

Time (CDT) Temp. Dew Point Humidity Pressure Visibility Wind Dir Wind Speed Gust Speed Precip Events Conditions
12:15 AM 66.2 °F 64.4 °F 94% 29.99 in 5.0 mi East 6.9 mph - N/A   Overcast
12:35 AM 66.2 °F 64.4 °F 94% 29.99 in 5.0 mi ENE 4.6 mph - N/A   Overcast
12:55 AM 66.2 °F 64.4 °F 94% 29.98 in 5.0 mi ENE 5.8 mph - N/A   Overcast
1:15 AM 66.2 °F 64.4 °F 94% 29.99 in 5.0 mi ENE 4.6 mph - N/A   Overcast
1:35 AM 66.2 °F 64.4 °F 94% 29.99 in 7.0 mi East 5.8 mph - N/A   Overcast
1:55 AM 66.2 °F 64.4 °F 94% 29.99 in 7.0 mi ENE 5.8 mph - N/A   Overcast
2:15 AM 64.4 °F 64.4 °F 100% 29.98 in 7.0 mi ENE 8.1 mph - N/A   Overcast
2:35 AM 64.4 °F 64.4 °F 100% 29.98 in 7.0 mi East 4.6 mph - N/A   Overcast
2:55 AM 66.2 °F 64.4 °F 94% 29.98 in 7.0 mi NE 3.5 mph - N/A   Overcast
3:15 AM 64.4 °F 64.4 °F 100% 29.98 in 7.0 mi ENE 4.6 mph - N/A   Overcast
3:35 AM 64.4 °F 64.4 °F 100% 29.99 in 7.0 mi ENE 6.9 mph - N/A   Overcast
3:55 AM 64.4 °F 62.6 °F 94% 29.99 in 7.0 mi ENE 5.8 mph - N/A   Overcast
4:15 AM 64.4 °F 62.6 °F 94% 29.99 in 10.0 mi ENE 6.9 mph - N/A   Overcast
4:35 AM 64.4 °F 62.6 °F 94% 29.99 in 10.0 mi ENE 5.8 mph - N/A   Overcast
4:55 AM 64.4 °F 62.6 °F 94% 29.98 in 10.0 mi ENE 5.8 mph - N/A   Overcast
5:15 AM 64.4 °F 62.6 °F 94% 29.99 in 10.0 mi ENE 4.6 mph - N/A   Overcast
5:35 AM 64.4 °F 62.6 °F 94% 29.98 in 10.0 mi East 6.9 mph - N/A   Overcast
5:55 AM 64.4 °F 62.6 °F 94% 29.99 in 10.0 mi ENE 5.8 mph - N/A   Overcast
6:15 AM 64.4 °F 62.6 °F 94% 29.99 in 10.0 mi NE 4.6 mph - N/A   Overcast
6:35 AM 64.4 °F 62.6 °F 94% 29.99 in 10.0 mi NE 6.9 mph - N/A   Overcast
6:55 AM 66.2 °F 62.6 °F 88% 30.00 in 10.0 mi NE 6.9 mph - N/A   Overcast
7:15 AM 66.2 °F 62.6 °F 88% 30.00 in 10.0 mi East 5.8 mph - N/A   Overcast
7:35 AM 66.2 °F 62.6 °F 88% 30.00 in 7.0 mi East 5.8 mph - N/A   Overcast
7:55 AM 68.0 °F 62.6 °F 83% 30.01 in 7.0 mi East 4.6 mph - N/A   Overcast
8:15 AM 68.0 °F 62.6 °F 83% 30.02 in 7.0 mi East 3.5 mph - N/A   Overcast
8:35 AM 68.0 °F 62.6 °F 83% 30.02 in 7.0 mi East 3.5 mph - N/A   Overcast
8:55 AM 68.0 °F 64.4 °F 88% 30.02 in 7.0 mi East 6.9 mph - N/A   Overcast
9:15 AM 68.0 °F 64.4 °F 88% 30.02 in 5.0 mi ENE 5.8 mph - N/A   Overcast
9:35 AM 68.0 °F 64.4 °F 88% 30.02 in 5.0 mi NE 5.8 mph - N/A   Overcast
9:55 AM 68.0 °F 64.4 °F 88% 30.02 in 5.0 mi NE 5.8 mph - N/A   Overcast
10:15 AM 68.0 °F 64.4 °F 88% 30.02 in 5.0 mi ENE 4.6 mph - N/A   Overcast
10:35 AM 69.8 °F 64.4 °F 83% 30.02 in 7.0 mi NNE 5.8 mph - N/A   Overcast
10:55 AM 69.8 °F 64.4 °F 83% 30.03 in 7.0 mi NE 5.8 mph - N/A   Overcast
11:15 AM 69.8 °F 66.2 °F 88% 30.03 in 7.0 mi NNE 6.9 mph - N/A   Overcast
11:35 AM 69.8 °F 64.4 °F 83% 30.03 in 7.0 mi NE 8.1 mph - N/A   Overcast
11:55 AM 69.8 °F 66.2 °F 88% 30.03 in 7.0 mi NE 8.1 mph - N/A   Overcast
12:15 PM 69.8 °F 66.2 °F 88% 30.02 in 7.0 mi NNE 9.2 mph - N/A   Overcast
12:35 PM 71.6 °F 66.2 °F 83% 30.02 in 7.0 mi NE 9.2 mph - N/A   Overcast
12:55 PM 71.6 °F 68.0 °F 88% 30.02 in 7.0 mi ENE 6.9 mph - N/A   Overcast
1:15 PM 71.6 °F 68.0 °F 88% 30.02 in 5.0 mi ENE 8.1 mph - N/A   Overcast
1:35 PM 71.6 °F 68.0 °F 88% 30.02 in 5.0 mi East 8.1 mph - N/A   Overcast
1:55 PM 71.6 °F 68.0 °F 88% 30.02 in 5.0 mi ENE 5.8 mph - N/A   Overcast
2:15 PM 71.6 °F 68.0 °F 88% 30.02 in 5.0 mi ENE 6.9 mph - N/A   Overcast
2:35 PM 71.6 °F 68.0 °F 88% 30.02 in 7.0 mi East 9.2 mph - N/A   Overcast
2:55 PM 69.8 °F 68.0 °F 94% 30.01 in 5.0 mi NE 8.1 mph - N/A   Overcast
3:15 PM 71.6 °F 68.0 °F 88% 30.01 in 5.0 mi NE 6.9 mph - N/A   Overcast
3:35 PM 69.8 °F 68.0 °F 94% 30.01 in 7.0 mi NE 5.8 mph - N/A   Overcast
3:55 PM 69.8 °F 66.2 °F 88% 30.01 in 5.0 mi ENE 5.8 mph - N/A   Overcast
4:15 PM 69.8 °F 68.0 °F 94% 30.00 in 5.0 mi NE 8.1 mph - N/A   Overcast
4:35 PM 69.8 °F 68.0 °F 94% 30.00 in 5.0 mi NNE 5.8 mph - N/A   Overcast
4:55 PM 69.8 °F 68.0 °F 94% 30.00 in 7.0 mi NE 10.4 mph - N/A   Overcast
5:15 PM 69.8 °F 68.0 °F 94% 30.00 in 7.0 mi NE 6.9 mph - N/A   Overcast
5:35 PM 69.8 °F 68.0 °F 94% 30.00 in 10.0 mi NE 4.6 mph - N/A   Overcast
5:55 PM 69.8 °F 68.0 °F 94% 30.00 in 10.0 mi NE 4.6 mph - N/A   Overcast
6:15 PM 71.6 °F 68.0 °F 88% 30.01 in 10.0 mi NE 4.6 mph - N/A   Overcast
6:35 PM 71.6 °F 68.0 °F 88% 30.01 in 10.0 mi Calm Calm - N/A   Overcast
6:55 PM 71.6 °F 68.0 °F 88% 30.02 in 10.0 mi Calm Calm - N/A   Overcast
7:15 PM 71.6 °F 68.0 °F 88% 30.02 in 7.0 mi NE 3.5 mph - N/A   Overcast
7:35 PM 69.8 °F 68.0 °F 94% 30.02 in 4.0 mi North 3.5 mph - N/A   Light Drizzle
7:55 PM 69.8 °F 68.0 °F 94% 30.01 in 7.0 mi NE 6.9 mph - N/A   Overcast
8:15 PM 69.8 °F 68.0 °F 94% 30.01 in 10.0 mi East 6.9 mph - N/A   Overcast
8:35 PM 69.8 °F 68.0 °F 94% 30.00 in 10.0 mi ENE 6.9 mph - N/A   Overcast
8:55 PM 69.8 °F 68.0 °F 94% 30.00 in 7.0 mi NE 5.8 mph - N/A   Overcast
9:15 PM 69.8 °F 68.0 °F 94% 30.00 in 7.0 mi NE 8.1 mph - N/A   Overcast
9:35 PM 69.8 °F 68.0 °F 94% 30.01 in 7.0 mi ENE 4.6 mph - N/A   Overcast
9:55 PM 69.8 °F 68.0 °F 94% 30.01 in 5.0 mi NE 6.9 mph - N/A   Overcast
10:15 PM 68.0 °F 68.0 °F 100% 30.01 in 5.0 mi NE 5.8 mph - N/A   Overcast
10:35 PM 68.0 °F 66.2 °F 94% 30.01 in 5.0 mi NE 6.9 mph - N/A   Overcast
11:15 PM 68.0 °F 66.2 °F 94% 30.01 in 4.0 mi NNE 6.9 mph - N/A   Overcast
11:35 PM 68.0 °F 66.2 °F 94% 30.01 in 5.0 mi NNE 3.5 mph - N/A   Overcast
11:55 PM 68.0 °F 66.2 °F 94% 30.00 in 5.0 mi North 3.5 mph - N/A   Overcast